Weather History for KLNP - April, 2012

Change the Weather History Date:

Saturday, April 28, 2012

  Actual Average (KTRI) Record (KTRI)
Temperature  
Mean Temperature 62 °F 59 °F  
Max Temperature 75 °F 71 °F 88 °F (1957)
Min Temperature 48 °F 46 °F 32 °F (2005)
Degree Days  
Heating Degree Days 4 7  
Month to date heating degree days 291  
Since 1 July heating degree days 4241  
Cooling Degree Days 0 1  
Month to date cooling degree days 7  
Year to date cooling degree days 8  
Growing Degree Days 12 (Base 50)    
Moisture  
Dew Point 51 °F    
Average Humidity 64    
Maximum Humidity 83    
Minimum Humidity 50    
Precipitation  
Precipitation 0.00 in 0.11 in 1.15 in (1970)
Month to date precipitation 3.10  
Year to date precipitation 13.36  
Snow  
Snow 0.00 in 0.10 in - ()
Month to date snowfall 1.1  
Since 1 July snowfall 13.3  
Snow Depth -    
Sea Level Pressure  
Sea Level Pressure 30.10 in    
Wind  
Wind Speed 6 mph (SSW)    
Max Wind Speed 22 mph    
Max Gust Speed 26 mph    
Visibility 10 miles    
Events Rain , Thunderstorm    
T = Trace of Precipitation, MM = Missing Value Source: NWS Daily Summary

Daily Weather History Graph

Daily Weather History Graph

Search for Another Location

Airport or City:

Trip Planner

Search our weather history database for the weather conditions in past years. The results will help you decide how hot, cold, wet, or windy it might be!

Date:

Astronomy

Apr. 28, 2012 Rise Set
Actual Time 6:38 AM EDT 8:16 PM EDT
Civil Twilight 6:11 AM EDT 8:44 PM EDT
Nautical Twilight 5:37 AM EDT 9:18 PM EDT
Astronomical Twilight 5:02 AM EDT 9:53 PM EDT
Moon 12:17 PM EDT (4/28) 1:39 AM EDT (4/28)
Length of Visible Light 14h 33m
Length of Day
13h 38m
Waxing Crescent, 42% of the Moon is Illuminated
Apr 28
Waxing Crescent
Apr 29
First Quarter
May 5
Full
May 12
Last Quarter
May 20
New

Hourly Weather History & Observations

Time (EDT) Temp. Dew Point Humidity Pressure Visibility Wind Dir Wind Speed Gust Speed Precip Events Conditions
12:15 AM 51.8 °F 37.4 °F 58% 30.12 in 10.0 mi NE 4.6 mph - N/A   Mostly Cloudy
12:35 AM 51.8 °F 37.4 °F 58% 30.12 in 10.0 mi ENE 5.8 mph - N/A   Overcast
1:15 AM 51.8 °F 37.4 °F 58% 30.12 in 10.0 mi Calm Calm - N/A   Mostly Cloudy
1:35 AM 51.8 °F 39.2 °F 62% 30.12 in 10.0 mi Calm Calm - N/A   Mostly Cloudy
1:55 AM 50.0 °F 41.0 °F 71% 30.12 in 10.0 mi Calm Calm - N/A   Scattered Clouds
2:15 AM 50.0 °F 41.0 °F 71% 30.11 in 10.0 mi Calm Calm - N/A   Scattered Clouds
2:35 AM 50.0 °F 39.2 °F 66% 30.11 in 10.0 mi Calm Calm - N/A   Clear
2:55 AM 48.2 °F 39.2 °F 71% 30.11 in 10.0 mi Calm Calm - N/A   Scattered Clouds
3:15 AM 50.0 °F 39.2 °F 66% 30.11 in 10.0 mi Calm Calm - N/A   Clear
3:35 AM 50.0 °F 39.2 °F 66% 30.11 in 10.0 mi Calm Calm - N/A   Clear
4:15 AM 50.0 °F 41.0 °F 71% 30.12 in 10.0 mi Calm Calm - N/A   Overcast
4:35 AM 51.8 °F 41.0 °F 67% 30.12 in 10.0 mi Calm Calm - N/A   Overcast
4:55 AM 53.6 °F 41.0 °F 62% 30.11 in 10.0 mi SE 4.6 mph - N/A   Overcast
5:15 AM 57.2 °F 41.0 °F 55% 30.11 in 10.0 mi SSE 5.8 mph - N/A   Overcast
5:35 AM 57.2 °F 41.0 °F 55% 30.12 in 10.0 mi SSE 4.6 mph - N/A   Overcast
5:55 AM 59.0 °F 41.0 °F 51% 30.12 in 10.0 mi SSE 4.6 mph - N/A   Overcast
6:15 AM 59.0 °F 41.0 °F 51% 30.12 in 10.0 mi South 6.9 mph - N/A   Overcast
6:35 AM 59.0 °F 42.8 °F 55% 30.11 in 10.0 mi SSE 6.9 mph - N/A   Overcast
6:55 AM 59.0 °F 42.8 °F 55% 30.11 in 10.0 mi SSE 5.8 mph - N/A Thunderstorm Overcast
7:15 AM 59.0 °F 44.6 °F 59% 30.12 in 10.0 mi South 8.1 mph - N/A   Overcast
7:35 AM 59.0 °F 44.6 °F 59% 30.12 in 10.0 mi South 4.6 mph - N/A Rain Light Rain
7:55 AM 59.0 °F 46.4 °F 63% 30.12 in 10.0 mi South 8.1 mph - N/A   Overcast
8:15 AM 59.0 °F 46.4 °F 63% 30.12 in 10.0 mi South 8.1 mph - N/A   Overcast
8:55 AM 59.0 °F 48.2 °F 67% 30.12 in 10.0 mi South 8.1 mph - N/A   Overcast
9:35 AM 57.2 °F 51.8 °F 82% 30.14 in 10.0 mi SSW 9.2 mph - N/A   Overcast
9:55 AM 59.0 °F 51.8 °F 77% 30.14 in 10.0 mi SSW 9.2 mph - N/A   Overcast
10:15 AM 60.8 °F 53.6 °F 77% 30.14 in 10.0 mi SSW 10.4 mph - N/A Thunderstorm Mostly Cloudy
10:35 AM 62.6 °F 53.6 °F 72% 30.13 in 10.0 mi South 11.5 mph - N/A   Mostly Cloudy
10:55 AM 62.6 °F 53.6 °F 72% 30.13 in 10.0 mi SSW 6.9 mph - N/A   Mostly Cloudy
11:15 AM 64.4 °F 57.2 °F 77% 30.12 in 10.0 mi SW 9.2 mph - N/A   Overcast
11:35 AM 64.4 °F 59.0 °F 83% 30.12 in 10.0 mi SSW 8.1 mph - N/A   Overcast
11:55 AM 64.4 °F 57.2 °F 77% 30.12 in 10.0 mi South 8.1 mph - N/A   Overcast
12:15 PM 68.0 °F 57.2 °F 68% 30.12 in 10.0 mi South 10.4 mph - N/A   Overcast
12:35 PM 69.8 °F 59.0 °F 68% 30.11 in 10.0 mi SW 16.1 mph 21.9 mph N/A   Scattered Clouds
12:55 PM 69.8 °F 59.0 °F 68% 30.10 in 10.0 mi SW 13.8 mph 21.9 mph N/A   Clear
1:15 PM 69.8 °F 59.0 °F 68% 30.10 in 10.0 mi SW 18.4 mph 25.3 mph N/A   Clear
1:35 PM 69.8 °F 59.0 °F 68% 30.09 in 10.0 mi SW 18.4 mph 25.3 mph N/A   Clear
1:55 PM 71.6 °F 57.2 °F 60% 30.09 in 10.0 mi SW 17.3 mph 26.5 mph N/A   Clear
2:15 PM 71.6 °F 55.4 °F 57% 30.09 in 10.0 mi SW 21.9 mph 25.3 mph N/A   Clear
2:35 PM 71.6 °F 57.2 °F 60% 30.09 in 10.0 mi SW 17.3 mph 23.0 mph N/A   Clear
2:55 PM 73.4 °F 57.2 °F 57% 30.09 in 10.0 mi SW 16.1 mph 23.0 mph N/A   Clear
3:15 PM 71.6 °F 57.2 °F 60% 30.09 in 10.0 mi SW 18.4 mph 26.5 mph N/A   Scattered Clouds
3:35 PM 73.4 °F 55.4 °F 53% 30.08 in 10.0 mi SW 17.3 mph 26.5 mph N/A   Scattered Clouds
3:55 PM 73.4 °F 57.2 °F 57% 30.07 in 10.0 mi SSW 17.3 mph 21.9 mph N/A   Scattered Clouds
4:15 PM 75.2 °F 57.2 °F 53% 30.07 in 10.0 mi WSW 10.4 mph 20.7 mph N/A   Scattered Clouds
4:35 PM 73.4 °F 55.4 °F 53% 30.06 in 10.0 mi SW 13.8 mph 23.0 mph N/A   Scattered Clouds
4:55 PM 73.4 °F 55.4 °F 53% 30.06 in 10.0 mi SW 18.4 mph 21.9 mph N/A   Clear
5:35 PM 73.4 °F 53.6 °F 50% 30.05 in 10.0 mi SW 12.7 mph 21.9 mph N/A   Clear
5:55 PM 73.4 °F 55.4 °F 53% 30.05 in 10.0 mi SW 15.0 mph 19.6 mph N/A   Clear
6:15 PM 73.4 °F 53.6 °F 50% 30.06 in 10.0 mi SW 10.4 mph - N/A   Clear
6:35 PM 73.4 °F 55.4 °F 53% 30.05 in 10.0 mi WSW 11.5 mph - N/A   Clear
6:55 PM 71.6 °F 53.6 °F 53% 30.05 in 10.0 mi SW 12.7 mph 17.3 mph N/A   Clear
7:15 PM 71.6 °F 55.4 °F 57% 30.05 in 10.0 mi SW 8.1 mph 16.1 mph N/A   Clear
7:35 PM 71.6 °F 55.4 °F 57% 30.05 in 10.0 mi SW 11.5 mph - N/A   Clear
7:55 PM 69.8 °F 55.4 °F 60% 30.06 in 10.0 mi WSW 8.1 mph - N/A   Clear
8:15 PM 68.0 °F 55.4 °F 64% 30.07 in 10.0 mi SW 6.9 mph - N/A   Clear
8:35 PM 66.2 °F 55.4 °F 68% 30.09 in 10.0 mi WSW 4.6 mph - N/A   Clear
8:55 PM 66.2 °F 55.4 °F 68% 30.10 in 10.0 mi SW 4.6 mph - N/A   Clear
9:15 PM 64.4 °F 55.4 °F 73% 30.10 in 10.0 mi SSW 4.6 mph - N/A   Clear
9:35 PM 64.4 °F 55.4 °F 73% 30.11 in 10.0 mi SW 4.6 mph - N/A   Clear
9:55 PM 64.4 °F 57.2 °F 77% 30.12 in 10.0 mi WSW 3.5 mph - N/A   Clear
10:15 PM 66.2 °F 57.2 °F 73% 30.12 in 10.0 mi WSW 5.8 mph - N/A   Clear
10:35 PM 66.2 °F 57.2 °F 73% 30.12 in 10.0 mi WSW 6.9 mph - N/A   Clear
10:55 PM 66.2 °F 57.2 °F 73% 30.15 in 10.0 mi West 6.9 mph - N/A   Scattered Clouds
11:15 PM 66.2 °F 57.2 °F 73% 30.16 in 10.0 mi WSW 8.1 mph - N/A   Scattered Clouds
11:35 PM 66.2 °F 57.2 °F 73% 30.16 in 10.0 mi WSW 6.9 mph - N/A   Mostly Cloudy
11:55 PM 68.0 °F 59.0 °F 73% 30.16 in 10.0 mi WSW 5.8 mph - N/A   Scattered Clouds